Theta_e
301 301 301 301 301 301 301 302 303 304 306 307 308 309 310 311 311 308 306 305 301 295 297 298 299 294 294 292 288 293 291 291 292 288 287 288 284 288 285 287 285 285 284 284 283 280 278 292 292 285 291 293 292 291
300 300 300 300 300 300 300 301 303 304 307 308 308 309 310 310 311 311 304 304 304 296 296 302 302 303 301 300 296 294 293 290 294 291 290 290 286 289 287 282 291 285 288 286 286 287 298 297 294 296 294 291 292 291
299 299 299 300 300 300 300 301 302 305 306 307 308 309 309 309 310 309 304 302 300 295 296 298 297 303 304 303 304 292 294 296 295 298 295 293 286 290 283 286 287 291 293 285 287 292 294 294 296 295 295 292 293 293
299 299 299 300 300 300 300 301 302 304 305 307 309 309 309 310 310 309 303 304 301 297 289 295 302 300 305 303 302 302 300 296 298 296 294 292 289 292 288 291 288 292 288 287 287 291 291 293 293 293 292 293 293 294
299 299 299 300 300 300 300 300 301 303 304 307 308 309 308 307 308 309 308 305 304 297 290 292 299 302 301 300 299 300 299 296 295 292 291 290 294 292 293 291 288 290 287 286 286 291 289 289 292 293 292 292 294 294
299 300 300 300 300 300 300 300 300 302 303 305 306 307 307 306 306 304 297 302 303 302 293 287 298 298 300 299 297 297 298 296 294 292 292 296 299 295 288 287 295 296 297 295 290 293 292 292 293 294 293 294 295 297
299 299 299 299 300 300 300 300 300 301 302 303 304 306 306 306 303 298 297 300 304 302 293 288 289 297 296 297 298 296 298 295 294 293 293 294 296 296 291 287 295 297 296 295 295 292 290 292 290 294 295 296 298 301
299 299 299 299 299 300 300 300 300 301 301 302 303 304 306 304 302 299 302 304 304 298 295 287 288 292 297 294 295 298 294 295 294 294 298 296 298 295 289 296 297 297 295 294 293 294 292 293 295 295 297 298 298 298
299 299 299 299 299 299 300 300 300 300 301 301 303 303 300 299 296 299 303 305 305 297 290 289 285 285 297 295 295 298 296 289 298 293 296 297 293 289 294 296 295 294 293 291 293 293 293 292 293 294 296 298 297 297
298 298 298 299 299 299 299 300 301 301 301 302 301 298 293 298 304 305 300 294 294 294 293 288 292 287 292 291 292 294 297 293 290 295 298 293 294 296 295 295 296 295 294 293 290 289 291 291 292 294 296 297 298 298
298 298 298 298 299 299 299 300 302 302 301 298 293 293 300 303 300 295 290 289 290 286 290 291 291 288 294 288 287 294 292 294 289 293 293 293 289 294 295 295 295 295 294 293 293 294 295 294 294 295 296 297 298 298
298 298 298 298 298 298 300 301 302 298 296 297 296 299 298 296 292 287 288 291 288 287 291 289 293 294 294 294 290 293 292 293 287 296 292 290 293 294 294 294 294 294 293 293 295 295 295 296 297 296 296 296 297 298
297 297 297 297 298 299 300 301 301 303 302 299 295 292 291 289 284 284 282 285 287 292 295 295 293 297 296 294 291 288 286 290 295 292 291 293 294 294 294 294 293 294 294 294 295 295 296 297 297 297 296 297 297 296
297 297 297 297 298 298 300 300 299 301 298 291 287 281 284 283 285 287 289 292 296 296 295 294 294 295 298 294 293 287 292 294 289 287 287 295 294 294 294 294 293 292 293 294 294 295 296 296 295 296 297 297 297 295
297 297 297 297 297 299 300 300 300 300 296 287 287 280 283 288 290 292 293 293 295 297 295 292 294 295 294 292 293 290 288 288 288 288 291 296 294 294 293 293 292 292 294 294 295 295 296 296 295 295 296 297 296 296
296 296 295 298 298 299 299 299 298 297 293 288 287 284 288 287 288 289 291 291 294 295 296 295 292 290 288 290 288 288 288 286 289 294 295 294 293 293 293 294 293 294 295 295 296 296 297 296 295 295 296 296 296 296
295 292 295 296 297 297 297 297 294 289 286 285 285 289 288 288 286 288 289 290 295 292 288 292 287 287 293 288 286 288 287 289 295 295 296 296 294 294 295 294 294 295 295 295 296 296 297 297 297 295 293 294 295 296
293 294 295 295 296 294 294 295 290 287 283 286 283 286 289 289 288 289 290 292 291 290 292 289 294 288 287 285 289 294 296 299 296 296 297 296 296 296 295 294 295 295 295 296 296 296 297 296 295 294 294 295 295 295
294 294 295 296 296 292 287 289 290 283 284 287 287 288 287 287 290 291 291 292 292 293 292 292 289 287 289 295 295 296 296 296 295 294 295 295 297 296 296 295 295 295 296 296 296 296 296 297 296 296 296 296 294 294
296 296 296 297 296 289 284 286 292 285 282 286 288 287 287 288 290 290 291 291 290 290 288 287 289 293 295 299 300 298 298 299 296 294 292 293 297 297 296 295 295 296 296 296 296 295 296 296 297 298 298 296 295 294
294 295 296 296 293 290 286 284 284 286 288 285 288 288 287 289 288 288 289 292 288 288 288 291 293 296 301 302 302 302 301 301 299 297 294 293 296 297 296 296 296 296 295 296 295 295 295 296 297 298 298 297 297 296
294 295 294 294 288 288 286 288 285 287 285 286 286 287 286 286 288 290 293 288 288 291 293 293 295 296 297 298 300 302 303 303 301 298 294 294 295 295 295 295 295 294 295 295 296 296 296 298 298 298 297 297 297 297
294 293 290 288 285 283 282 290 284 285 281 284 288 286 287 288 292 295 290 290 292 297 297 297 297 298 298 300 301 302 302 301 300 299 299 299 298 298 297 296 297 296 294 296 297 297 297 294 296 297 296 296 295 294
294 288 284 283 283 281 286 285 286 285 286 284 284 283 286 290 293 289 288 293 297 299 298 298 298 297 299 299 300 301 302 302 300 300 301 299 296 296 297 298 298 299 298 298 297 297 297 298 295 297 296 295 294 294
284 280 282 279 285 282 281 281 282 283 282 285 284 285 288 291 286 287 289 294 298 299 299 298 298 298 298 299 302 302 301 302 300 299 300 301 300 298 296 296 298 299 300 298 296 296 296 297 298 296 295 295 294 293
277 281 279 281 282 282 282 281 283 284 286 285 287 290 291 286 285 286 292 297 297 298 299 299 299 299 300 302 302 301 301 302 302 300 300 302 302 300 296 294 295 297 300 299 298 296 296 297 296 295 296 293 289 294
277 280 284 287 286 286 285 287 288 286 285 284 287 288 288 285 285 290 298 300 299 300 302 303 303 303 302 302 303 303 303 303 303 302 303 303 304 304 303 298 296 300 301 300 299 298 296 297 296 296 296 297 297 297
282 284 280 285 285 287 284 286 286 286 287 289 289 287 285 286 285 293 298 300 302 302 301 301 301 301 299 301 303 302 303 305 303 301 302 302 303 304 304 304 302 292 301 302 301 301 300 298 297 297 297 296 296 299
282 286 286 283 285 287 287 287 288 289 293 289 286 286 285 291 299 299 300 301 301 299 298 298 298 302 302 301 303 303 302 302 300 297 296 296 298 301 303 304 303 302 301 298 289 296 300 299 298 298 298 298 298 298
284 287 285 285 284 284 289 291 291 294 296 294 290 290 293 297 298 303 302 300 298 297 298 298 299 299 298 298 298 299 300 301 301 301 300 300 302 301 301 302 302 303 302 299 298 299 286 295 292 297 298 298 297 297
289 288 286 287 287 291 294 297 296 296 296 295 297 294 293 296 300 302 301 301 300 300 299 298 298 299 299 298 298 298 297 301 300 300 299 300 302 303 304 304 304 304 304 302 298 300 298 297 298 297 297 296 295 294
288 286 285 284 288 295 297 294 292 290 292 293 293 295 297 296 293 298 301 301 299 297 292 296 297 297 299 299 300 300 289 300 298 297 297 297 298 303 302 304 305 304 303 303 302 301 300 298 297 297 298 296 295 295
288 289 289 289 290 289 293 291 290 291 292 291 292 294 296 295 292 298 302 302 299 298 298 299 300 300 300 299 298 297 293 299 294 287 287 286 286 289 294 302 303 303 303 301 301 301 300 298 298 297 297 296 296 295
Wind_Speed
5 7 8 10 11 12 13 15 15 16 16 16 15 16 16 14 10 3 3 6 4 5 12 17 13 11 7 5 5 8 7 2 2 4 3 1 3 2 3 4 4 3 4 3 4 5 7 3 10 3 13 19 21 19
5 7 8 9 10 11 13 15 15 15 15 17 16 15 15 12 11 6 2 2 3 3 6 12 18 20 23 24 13 5 5 0 2 3 3 2 4 3 4 5 4 5 5 4 7 7 12 7 14 15 13 17 21 20
7 7 8 10 12 12 12 14 17 17 18 17 17 15 15 15 11 5 2 2 2 3 8 8 9 7 7 15 16 5 4 7 6 5 2 3 5 2 4 6 4 5 3 5 4 8 12 14 15 9 20 18 20 21
6 7 9 9 11 12 14 15 16 16 18 18 15 14 13 14 11 7 2 2 1 2 4 5 3 12 17 11 14 18 13 3 1 2 4 4 3 4 4 7 9 6 3 6 9 12 12 7 12 17 19 20 21 22
6 6 7 9 11 12 13 14 16 17 17 18 15 12 11 15 12 5 3 2 1 2 4 9 18 6 3 4 10 12 14 9 3 3 4 4 2 4 3 4 6 4 6 4 7 10 8 11 15 19 19 21 21 22
7 8 9 9 9 11 13 14 15 15 18 18 17 15 11 12 13 3 1 2 0 1 3 5 5 5 8 7 7 8 10 8 4 3 4 4 6 4 4 4 6 10 8 8 5 4 10 15 16 16 16 20 23 20
8 8 8 9 9 11 12 14 15 15 18 18 18 16 11 9 3 3 3 2 1 0 2 5 6 4 6 3 1 3 8 4 5 3 5 6 5 4 4 5 2 5 6 7 7 9 7 7 11 18 17 19 18 10
8 9 9 10 11 11 11 12 14 16 18 19 20 20 14 10 2 4 2 3 5 1 2 3 6 6 4 4 2 4 4 4 5 4 4 4 2 3 6 6 5 6 5 7 5 9 11 12 12 14 15 11 9 9
9 9 11 11 12 13 13 14 15 16 17 18 20 11 1 1 2 0 6 2 3 1 2 3 3 5 8 4 4 4 4 4 3 5 4 2 2 5 5 7 5 6 6 7 8 10 9 10 13 13 12 11 8 8
8 9 10 11 12 14 16 18 19 19 19 15 2 2 2 2 8 9 3 2 1 2 2 3 1 4 3 2 4 4 0 2 3 3 2 3 4 3 2 3 4 4 4 7 8 7 9 10 12 14 11 9 8 8
8 9 9 10 11 13 14 15 15 16 10 4 3 3 4 7 1 1 1 2 2 2 3 4 5 4 3 4 3 3 3 2 3 2 3 3 3 2 1 4 5 5 5 6 6 6 6 9 10 8 9 9 9 10
9 9 9 9 10 11 13 15 8 2 2 1 3 5 3 3 2 2 2 2 4 2 2 3 5 5 3 3 3 3 4 1 4 2 3 2 3 3 1 3 4 4 6 6 6 6 7 9 8 7 7 8 9 10
8 8 9 10 11 13 14 11 13 13 8 1 1 4 3 2 3 4 5 3 3 2 3 4 8 3 3 4 3 3 3 5 1 3 2 3 3 1 1 3 2 4 6 5 4 6 7 7 9 8 8 7 9 10
8 8 9 11 11 12 13 9 10 8 1 1 3 5 4 4 5 4 2 1 1 3 7 7 5 4 3 3 3 4 3 4 3 2 3 3 3 0 2 2 1 3 6 5 5 6 8 9 9 9 9 7 10 10
7 8 10 11 6 6 8 10 7 2 1 3 3 5 6 5 3 3 3 4 3 4 3 5 4 3 4 4 3 3 3 3 3 2 2 5 2 2 2 2 2 2 5 4 4 6 8 9 9 10 10 9 10 11
6 8 1 1 7 10 10 2 1 0 3 3 6 6 5 4 5 3 3 5 3 2 4 3 5 4 4 3 4 5 2 2 3 2 3 0 1 1 1 2 3 2 3 5 5 6 7 9 9 9 10 10 10 11
3 2 2 6 9 11 7 2 2 4 4 5 6 6 8 7 9 5 4 3 1 4 3 3 5 5 1 3 2 1 2 3 4 2 2 3 2 1 1 2 4 2 4 5 5 6 7 7 8 9 12 9 10 11
3 3 5 5 6 3 2 2 3 3 7 8 6 5 7 8 8 7 5 5 2 3 3 4 4 3 3 3 2 1 3 4 1 1 2 3 3 3 3 3 4 2 4 5 5 5 6 8 9 7 10 10 10 10
4 4 6 6 3 2 2 3 3 5 8 6 8 8 9 8 9 11 10 9 7 6 5 4 6 5 5 4 3 2 3 2 1 2 1 3 4 4 4 3 5 4 3 6 5 4 5 7 6 5 5 7 7 6
7 8 9 9 3 1 3 3 2 4 4 3 4 7 5 7 6 5 7 6 7 5 7 7 7 5 3 2 2 4 4 3 2 3 1 3 4 5 6 5 4 4 3 5 5 6 5 5 4 6 5 7 8 7
1 2 5 4 2 4 3 3 4 4 4 4 4 3 5 5 7 6 6 7 7 6 7 10 9 6 6 4 2 3 4 4 5 5 4 5 6 5 5 4 6 5 4 3 4 4 4 4 5 5 6 6 7 7
2 4 1 2 2 3 4 5 4 4 3 5 6 6 6 5 5 5 5 7 6 10 11 10 9 8 8 10 6 4 4 2 4 4 5 8 8 7 6 5 5 4 4 4 4 5 5 4 5 5 6 6 7 8
2 3 2 2 3 4 5 3 5 4 5 4 3 4 5 4 4 4 3 4 5 8 10 11 13 12 12 10 6 4 4 5 5 5 7 6 6 6 6 6 5 5 5 5 4 4 4 6 6 7 7 7 7 7
2 2 3 3 5 4 3 4 4 4 4 5 4 5 5 4 2 4 4 3 3 2 4 7 7 6 5 7 6 5 4 5 5 5 6 8 7 6 6 6 6 4 6 6 5 5 5 6 7 7 7 8 8 7
3 4 3 5 4 5 5 5 5 4 5 5 5 6 3 2 3 3 3 2 1 2 1 3 6 6 4 3 2 3 5 6 6 7 6 7 7 7 6 5 5 5 7 8 8 7 5 6 6 7 8 8 9 9
4 5 7 5 4 5 4 4 4 4 4 4 5 4 3 3 4 1 1 3 2 3 2 5 6 5 3 1 4 4 5 4 5 5 7 7 8 8 8 8 7 6 6 7 8 10 9 8 9 10 9 8 8 10
4 6 6 5 4 4 4 5 6 7 6 4 3 3 3 3 2 1 1 4 2 3 4 4 4 4 4 4 4 4 5 5 2 3 6 7 6 6 8 9 10 8 9 10 9 10 12 10 11 9 11 10 11 10
5 4 6 3 5 5 5 4 4 4 4 3 3 3 4 4 2 3 4 4 6 7 8 7 7 7 7 5 5 6 5 4 6 7 6 4 3 4 6 4 4 10 9 11 11 11 11 11 11 11 11 8 9 11
5 4 4 9 6 5 4 4 4 3 3 2 2 3 2 3 2 3 3 4 4 6 7 9 8 8 9 9 8 7 5 3 3 2 3 3 4 5 5 5 5 8 8 7 7 10 13 11 11 10 10 7 7 9
5 6 5 5 4 5 3 5 4 5 4 4 4 3 2 2 4 4 5 6 8 8 8 8 8 9 9 8 8 9 6 5 5 3 2 2 1 1 5 7 7 7 9 9 10 12 6 10 7 8 10 8 8 9
2 4 4 4 5 3 5 2 4 3 1 3 5 7 6 5 5 6 6 6 7 8 9 10 9 9 9 9 7 7 6 6 7 5 3 4 4 4 2 6 8 8 9 12 11 12 14 12 12 12 11 12 13 11
4 7 4 5 4 3 3 1 2 2 1 3 4 4 5 4 5 4 5 4 7 7 4 5 6 5 5 5 5 4 1 4 4 4 5 3 3 3 3 3 6 8 9 11 12 11 14 17 13 16 15 16 15 15
4 4 4 3 2 4 2 3 2 4 4 3 3 3 3 3 4 2 2 5 3 4 4 4 3 4 6 6 6 5 5 5 5 3 4 4 5 4 3 3 4 6 11 9 9 12 15 16 13 15 15 14 14 14
Wind_Direction
300 318 321 326 328 327 329 323 330 335 333 337 336 337 337 342 344 166 247 189 194 222 274 267 264 268 258 243 261 302 318 149 269 247 268 222 252 297 280 261 257 257 281 253 245 253 280 91 312 260 319 307 306 300
296 306 317 321 323 329 325 321 319 333 335 336 331 333 335 334 335 330 257 179 223 256 268 289 272 268 256 261 268 231 243 305 293 285 248 290 257 244 258 276 200 256 212 273 231 248 292 313 293 298 297 302 303 301
298 308 315 322 331 326 323 314 324 333 335 332 327 328 324 322 315 293 240 161 176 266 267 266 265 276 245 239 229 240 201 218 225 222 275 275 250 243 256 246 271 250 251 245 269 275 281 310 309 290 314 304 301 295
286 308 324 331 328 329 328 322 325 330 331 331 322 320 333 339 319 290 244 190 226 276 270 284 233 280 303 243 223 217 234 27 26 182 240 250 238 187 245 267 262 269 167 239 254 285 308 274 327 312 305 301 299 299
285 304 314 320 328 333 334 328 325 325 330 338 343 353 0 358 347 297 253 216 260 274 291 295 305 272 272 235 235 223 212 214 206 217 232 248 212 218 224 254 255 189 224 219 285 316 287 294 313 309 302 305 304 308
279 289 300 309 318 327 335 334 328 323 326 326 328 328 338 347 340 301 277 55 207 229 304 310 306 285 298 283 256 212 201 206 220 231 234 231 233 221 251 255 249 236 247 243 272 317 301 302 300 298 303 305 304 309
272 284 295 307 315 316 322 326 330 325 320 318 319 314 310 306 320 269 300 320 160 73 272 290 285 286 304 288 137 126 170 183 206 221 234 250 235 209 247 248 285 280 265 269 312 308 289 321 307 306 305 306 308 330
276 286 293 298 305 310 312 317 320 320 317 314 313 310 300 305 262 257 205 229 156 250 252 276 281 293 8 311 287 165 153 205 189 235 233 223 195 217 257 255 285 292 286 310 312 308 302 301 304 317 319 325 345 13
276 289 296 303 307 309 314 313 312 311 308 309 313 321 29 188 213 256 219 210 188 259 271 246 279 308 354 307 285 211 173 194 204 228 229 185 159 234 270 306 303 329 331 314 316 315 329 331 323 331 334 353 13 24
278 289 298 306 313 319 321 318 313 310 306 314 17 273 236 180 304 302 136 144 165 189 232 262 268 264 320 317 284 289 111 250 247 205 148 229 243 23 326 333 332 324 337 326 320 338 333 335 336 336 348 2 17 45
278 289 300 309 317 320 319 313 322 331 328 354 14 296 320 296 242 159 214 210 161 229 217 236 243 259 217 236 282 284 303 256 271 116 254 212 266 352 60 352 11 13 359 339 319 308 322 326 327 338 2 17 34 43
273 283 296 303 308 309 308 313 337 343 240 197 288 288 270 266 219 210 199 174 208 254 203 243 260 230 252 209 260 263 267 276 254 141 252 261 49 356 329 356 13 4 344 337 331 1 347 338 347 31 22 28 41 48
272 287 294 301 304 307 312 314 334 304 249 249 202 237 234 263 248 242 182 197 223 211 209 272 306 259 218 207 238 289 260 239 334 234 303 5 343 295 344 359 51 1 338 334 360 6 357 6 37 39 53 51 61 65
275 284 291 294 297 301 296 305 334 338 347 263 271 271 217 211 234 207 234 297 103 263 307 312 280 256 267 222 221 264 276 285 250 240 355 335 355 6 66 358 80 8 341 353 11 17 18 32 41 39 43 69 84 70
276 289 294 301 278 281 331 310 302 310 249 238 240 244 235 239 264 284 318 303 282 290 305 299 257 249 260 267 228 256 239 253 17 13 300 343 345 339 18 48 94 8 342 12 31 39 35 54 48 45 43 51 67 71
289 300 242 255 9 350 344 4 59 244 266 236 239 251 239 272 259 245 253 271 308 290 282 220 263 261 242 261 277 223 241 55 354 292 311 240 246 306 291 83 111 349 17 55 61 54 56 71 69 67 61 57 62 73
274 244 326 351 343 332 321 249 189 214 234 231 239 242 256 283 272 269 246 255 277 315 276 285 253 233 213 227 257 243 21 290 310 298 219 215 182 179 102 103 120 16 84 75 75 66 70 82 85 80 79 70 74 78
218 237 288 333 344 332 304 247 239 247 242 234 245 262 249 253 269 265 245 236 264 245 241 250 308 256 252 240 227 110 342 318 336 284 204 155 153 136 149 137 125 82 96 93 84 68 65 80 80 79 88 87 80 79
207 227 266 286 288 306 289 224 224 257 241 256 258 260 258 266 260 262 262 254 235 250 283 250 238 224 226 224 239 335 343 304 274 160 154 166 161 148 136 132 123 111 91 112 89 73 70 68 84 83 80 90 80 71
266 268 268 267 238 204 268 248 199 261 262 273 266 254 247 246 256 243 243 226 198 196 202 225 224 227 234 228 173 29 292 291 166 152 155 169 172 172 156 145 148 119 106 119 97 92 98 83 69 87 86 100 102 95
297 264 267 189 152 212 256 269 249 245 279 261 291 259 261 241 240 240 236 199 204 219 229 227 238 239 238 253 262 255 238 239 231 198 173 171 173 178 153 142 147 139 141 123 140 126 114 116 103 104 110 105 107 100
227 198 118 132 205 215 252 224 254 299 261 267 279 242 257 257 245 217 191 197 222 233 231 239 239 235 243 250 260 244 256 219 179 126 115 137 161 173 164 161 158 159 141 135 142 135 133 130 120 113 107 113 119 123
21 186 190 210 215 233 257 187 230 219 252 249 234 237 227 227 231 134 242 229 244 236 235 230 229 229 241 252 254 245 193 177 166 163 152 158 164 170 156 168 172 168 149 144 113 125 127 137 124 120 120 118 116 123
141 205 230 224 209 264 249 222 214 248 241 235 242 257 247 218 169 216 249 247 233 200 213 224 204 198 213 233 235 240 192 173 153 149 150 148 160 162 168 171 175 168 154 148 143 134 146 160 131 140 142 135 136 141
222 214 213 237 238 232 231 242 231 228 255 230 248 242 242 197 230 232 244 224 296 319 306 166 166 184 183 190 194 166 143 167 161 147 160 172 150 140 151 160 178 171 163 157 162 159 153 149 146 143 147 154 152 147
221 203 199 219 225 219 236 254 236 214 263 258 253 256 208 212 236 176 46 353 15 11 76 149 146 145 164 167 146 161 161 161 132 143 164 177 165 157 157 168 179 186 188 178 167 169 158 164 154 160 161 152 146 169
234 232 207 232 267 279 277 253 252 252 241 245 240 260 256 242 99 68 335 16 51 39 54 68 86 97 108 120 101 102 126 130 98 103 140 167 173 180 174 174 189 194 176 182 173 170 172 167 162 165 168 168 173 184
244 271 229 210 218 223 259 250 260 257 253 234 267 282 346 7 27 313 42 21 60 78 76 69 64 72 82 79 90 109 113 108 89 87 102 120 167 193 202 183 149 158 170 176 175 173 181 175 167 175 184 177 172 182
237 234 230 262 253 239 240 235 233 257 282 13 308 285 336 267 19 74 35 45 48 63 63 65 57 73 78 79 75 80 75 50 62 120 170 159 178 199 198 199 171 175 172 167 174 172 184 174 169 168 199 211 181 172
239 199 227 248 240 247 239 219 230 243 266 246 176 241 207 51 33 28 66 67 68 67 68 70 70 70 69 71 73 65 48 46 35 13 311 260 225 105 174 178 183 184 172 170 174 177 125 169 147 184 214 218 206 180
262 184 235 228 255 230 230 248 271 294 340 348 73 90 86 98 82 46 47 60 74 75 72 69 64 59 66 62 57 54 45 25 4 351 319 286 271 269 227 200 186 178 184 178 179 181 184 188 190 190 208 202 197 193
208 210 223 246 275 333 324 319 49 127 61 64 66 91 107 91 77 46 3 55 76 73 52 68 77 76 70 69 55 54 229 334 348 341 334 295 272 266 289 211 198 177 183 186 184 188 185 186 193 196 208 202 196 194
224 225 232 262 327 329 328 39 20 96 48 37 40 17 43 52 77 79 67 29 39 60 59 65 87 109 103 81 58 44 27 19 9 355 343 296 267 261 270 237 182 183 179 183 187 191 191 187 191 197 198 194 192 192